| time (UTC) | temp C | wind direction | speed KPH | gust KPH | rain 1hr cm | rain 24hr cm | rain mn cm | humidity % | barometer mb |
| 20260505012507 | 10 | 0 | 8.0 | 19.3 | 0.00 | 0.03 | 0.00 | 84 | 1012.6 |
| 20260505011007 | 10 | 22 | 9.7 | 19.3 | 0.00 | 0.03 | 0.00 | 85 | 1012.7 |
| 20260505010007 | 10 | 13 | 9.7 | 19.3 | 0.00 | 0.03 | 0.00 | 85 | 1012.7 |
| 20260505003007 | 11 | 319 | 8.0 | 16.1 | 0.00 | 0.03 | 0.00 | 85 | 1012.9 |
| 20260505002507 | 11 | 356 | 8.0 | 16.1 | 0.00 | 0.03 | 0.00 | 85 | 1013.0 |
| 20260504235507 | 11 | 4 | 4.8 | 14.5 | 0.00 | 0.03 | 0.00 | 86 | 1013.2 |
| 20260504235007 | 11 | 17 | 6.4 | 14.5 | 0.00 | 0.03 | 0.00 | 86 | 1013.2 |
| 20260504233007 | 11 | 352 | 8.0 | 14.5 | 0.00 | 0.03 | 0.00 | 85 | 1013.2 |
| 20260504231506 | 11 | 4 | 8.0 | 16.1 | 0.00 | 0.03 | 0.00 | 85 | 1013.2 |
| 20260504231007 | 11 | 4 | 9.7 | 22.5 | 0.00 | 0.03 | 0.00 | 85 | 1013.3 |
| 20260504225007 | 11 | 356 | 11.3 | 19.3 | 0.00 | 0.03 | 0.00 | 85 | 1013.5 |
| 20260504224506 | 11 | 19 | 11.3 | 19.3 | 0.00 | 0.03 | 0.00 | 86 | 1013.4 |
| 20260504224007 | 11 | 349 | 12.9 | 19.3 | 0.00 | 0.03 | 0.00 | 86 | 1013.4 |
| 20260504223506 | 11 | 2 | 9.7 | 19.3 | 0.00 | 0.03 | 0.00 | 86 | 1013.4 |
| 20260504223007 | 12 | 21 | 9.7 | 19.3 | 0.00 | 0.03 | 0.00 | 86 | 1013.4 |
| 20260504220007 | 12 | 0 | 8.0 | 16.1 | 0.00 | 0.03 | 0.00 | 86 | 1013.6 |
| 20260504214006 | 12 | 19 | 6.4 | 14.5 | 0.00 | 0.03 | 0.03 | 86 | 1013.7 |
| 20260504213507 | 12 | 18 | 8.0 | 14.5 | 0.00 | 0.03 | 0.03 | 86 | 1013.7 |
| 20260504212506 | 12 | 349 | 6.4 | 12.9 | 0.00 | 0.03 | 0.03 | 86 | 1013.7 |
| 20260504212007 | 12 | 349 | 8.0 | 16.1 | 0.00 | 0.03 | 0.03 | 86 | 1013.7 |
| 20260504211506 | 12 | 13 | 4.8 | 12.9 | 0.00 | 0.03 | 0.03 | 87 | 1013.7 |
| 20260504210006 | 12 | 356 | 8.0 | 11.3 | 0.00 | 0.03 | 0.03 | 87 | 1013.7 |
| 20260504205506 | 12 | 9 | 8.0 | 12.9 | 0.00 | 0.03 | 0.03 | 87 | 1013.7 |
| 20260504205007 | 12 | 355 | 6.4 | 11.3 | 0.00 | 0.03 | 0.03 | 87 | 1013.7 |
| 20260504204506 | 12 | 5 | 6.4 | 11.3 | 0.00 | 0.03 | 0.03 | 86 | 1013.7 |
| 20260504202006 | 12 | 3 | 4.8 | 9.7 | 0.00 | 0.03 | 0.03 | 85 | 1013.7 |
| 20260504201506 | 12 | 3 | 8.0 | 16.1 | 0.00 | 0.03 | 0.03 | 85 | 1013.7 |
| 20260504193506 | 13 | 25 | 8.0 | 16.1 | 0.00 | 0.03 | 0.03 | 83 | 1013.2 |
| 20260504193006 | 13 | 40 | 8.0 | 12.9 | 0.00 | 0.03 | 0.03 | 83 | 1013.2 |
| 20260504192006 | 13 | 19 | 4.8 | 8.0 | 0.00 | 0.03 | 0.03 | 83 | 1013.2 |
| 20260504191506 | 13 | 19 | 4.8 | 12.9 | 0.00 | 0.03 | 0.03 | 82 | 1013.1 |
| 20260504190006 | 14 | 20 | 4.8 | 9.7 | 0.00 | 0.03 | 0.03 | 81 | 1013.0 |
| 20260504185506 | 15 | 3 | 6.4 | 12.9 | 0.00 | 0.03 | 0.03 | 83 | 1013.0 |
| 20260504185006 | 15 | 3 | 4.8 | 9.7 | 0.00 | 0.03 | 0.03 | 81 | 1013.0 |
| 20260504184506 | 15 | 3 | 4.8 | 11.3 | 0.00 | 0.03 | 0.03 | 80 | 1012.9 |
| 20260504183006 | 15 | 343 | 8.0 | 11.3 | 0.00 | 0.03 | 0.03 | 81 | 1012.9 |
| 20260504181506 | 15 | 8 | 8.0 | 14.5 | 0.00 | 0.03 | 0.03 | 83 | 1012.8 |
| 20260504181006 | 15 | 329 | 3.2 | 11.3 | 0.00 | 0.03 | 0.03 | 83 | 1012.8 |
| 20260504180006 | 15 | 324 | 4.8 | 12.9 | 0.00 | 0.03 | 0.03 | 83 | 1012.8 |
| 20260504175506 | 15 | 331 | 8.0 | 11.3 | 0.00 | 0.03 | 0.03 | 82 | 1012.9 |
| 20260504175006 | 15 | 331 | 4.8 | 12.9 | 0.00 | 0.03 | 0.03 | 82 | 1012.8 |
| 20260504174506 | 15 | 342 | 3.2 | 12.9 | 0.00 | 0.03 | 0.03 | 82 | 1012.8 |
| 20260504174006 | 15 | 342 | 4.8 | 12.9 | 0.00 | 0.03 | 0.03 | 82 | 1012.8 |
| 20260504173506 | 15 | 316 | 4.8 | 11.3 | 0.00 | 0.03 | 0.03 | 81 | 1012.8 |
| 20260504173006 | 15 | 343 | 8.0 | 11.3 | 0.00 | 0.03 | 0.03 | 81 | 1012.9 |
| 20260504172505 | 15 | 347 | 4.8 | 9.7 | 0.00 | 0.03 | 0.03 | 82 | 1012.8 |
| 20260504172006 | 15 | 351 | 4.8 | 12.9 | 0.00 | 0.03 | 0.03 | 82 | 1012.9 |
| 20260504171506 | 15 | 0 | 3.2 | 11.3 | 0.00 | 0.03 | 0.03 | 82 | 1012.9 |
| 20260504171006 | 15 | 342 | 4.8 | 12.9 | 0.00 | 0.03 | 0.03 | 82 | 1012.9 |
| 20260504081508 | 15 | 214 | 0.0 | 3.2 | 0.00 | 0.25 | 0.03 | 90 | 1013.2 |
| 20260504081008 | 15 | 214 | 3.2 | 4.8 | 0.00 | 0.25 | 0.03 | 90 | 1013.2 |
| 20260504050008 | 11 | 215 | 1.6 | 3.2 | 0.00 | 0.28 | 0.00 | 96 | 1011.7 |
| 20260504043508 | 11 | 215 | 1.6 | 3.2 | 0.00 | 0.28 | 0.00 | 96 | 1011.4 |
| 20260504043008 | 11 | 215 | 1.6 | 4.8 | 0.00 | 0.28 | 0.00 | 96 | 1011.4 |
| 20260504042508 | 11 | 215 | 1.6 | 4.8 | 0.00 | 0.28 | 0.00 | 96 | 1011.4 |
| 20260504042008 | 11 | 215 | 4.8 | 8.0 | 0.00 | 0.28 | 0.00 | 96 | 1011.5 |
| 20260504041507 | 12 | 215 | 3.2 | 4.8 | 0.00 | 0.28 | 0.00 | 96 | 1011.4 |
| 20260504041008 | 12 | 215 | 3.2 | 4.8 | 0.00 | 0.28 | 0.00 | 96 | 1011.5 |
| 20260504040008 | 12 | 215 | 0.0 | 1.6 | 0.00 | 0.28 | 0.00 | 96 | 1011.5 |
| 20260504035508 | 12 | 215 | 1.6 | 3.2 | 0.00 | 0.28 | 0.00 | 96 | 1011.5 |
| 20260504035008 | 12 | 215 | 0.0 | 3.2 | 0.00 | 0.28 | 0.00 | 96 | 1011.5 |
| 20260504032007 | 11 | 215 | 0.0 | 0.0 | 0.00 | 0.28 | 0.00 | 96 | 1011.6 |
| 20260504031508 | 11 | 215 | 1.6 | 3.2 | 0.00 | 0.28 | 0.00 | 96 | 1011.7 |
| 20260504031008 | 11 | 215 | 0.0 | 3.2 | 0.00 | 0.28 | 0.00 | 96 | 1011.7 |
| 20260504025008 | 11 | 215 | 0.0 | 0.0 | 0.00 | 0.36 | 0.00 | 95 | 1011.7 |
| 20260504024507 | 11 | 215 | 0.0 | 0.0 | 0.00 | 0.38 | 0.00 | 95 | 1011.6 |
| 20260504024007 | 11 | 215 | 0.0 | 0.0 | 0.00 | 0.38 | 0.00 | 95 | 1011.6 |
| 20260504023507 | 11 | 215 | 0.0 | 0.0 | 0.00 | 0.41 | 0.00 | 95 | 1011.4 |
| 20260504023007 | 11 | 215 | 0.0 | 0.0 | 0.00 | 0.41 | 0.00 | 95 | 1011.3 |
| 20260504015507 | 12 | 215 | 0.0 | 0.0 | 0.00 | 0.41 | 0.00 | 95 | 1011.2 |
| 20260504015007 | 12 | 215 | 0.0 | 0.0 | 0.00 | 0.43 | 0.00 | 95 | 1011.2 |
| 20260504013507 | 12 | 215 | 0.0 | 0.0 | 0.00 | 0.46 | 0.00 | 95 | 1011.4 |
| 20260504013007 | 12 | 215 | 0.0 | 0.0 | 0.00 | 0.46 | 0.00 | 95 | 1011.4 |